QPF
0.01 0.02 0.03 0.09 0.17 0.16 0.15 0.14 0.12 0.08 0.05 0.03 0.02 0.02 0.04 0.06 0.07 0.08 0.14 0.18 0.12 0.07 0.07 0.08 0.08 0.07 0.07 0.07 0.05 0.04 0.03 0.04 0.04 0.04 0.04 0.03 0.02 0.02 0.02 0.02 0.03 0.04 0.03 0.03 0.03 0.04 0.05 0.05 0.05
0.01 0.02 0.05 0.13 0.13 0.11 0.12 0.15 0.12 0.07 0.03 0.02 0.02 0.03 0.04 0.04 0.06 0.07 0.15 0.15 0.07 0.07 0.06 0.06 0.06 0.06 0.05 0.03 0.02 0.04 0.03 0.03 0.03 0.03 0.03 0.02 0.02 0.02 0.03 0.03 0.03 0.03 0.02 0.02 0.03 0.03 0.03 0.03 0.03
0.01 0.02 0.09 0.15 0.12 0.09 0.09 0.14 0.12 0.05 0.03 0.02 0.01 0.01 0.03 0.04 0.06 0.08 0.14 0.10 0.04 0.04 0.06 0.06 0.06 0.04 0.03 0.02 0.02 0.03 0.02 0.02 0.02 0.03 0.03 0.04 0.04 0.04 0.03 0.03 0.04 0.03 0.02 0.02 0.03 0.03 0.02 0.02 0.02
0.02 0.05 0.12 0.12 0.08 0.08 0.08 0.10 0.09 0.05 0.03 0.03 0.01 0.01 0.02 0.04 0.05 0.07 0.09 0.04 0.03 0.02 0.04 0.05 0.04 0.02 0.02 0.02 0.01 0.02 0.02 0.02 0.03 0.03 0.03 0.03 0.02 0.02 0.02 0.03 0.03 0.03 0.03 0.02 0.03 0.04 0.02 0.02 0.02
0.08 0.10 0.09 0.07 0.05 0.07 0.08 0.07 0.08 0.07 0.05 0.03 0.01 0.01 0.02 0.04 0.06 0.06 0.04 0.01 0.01 0.01 0.01 0.04 0.04 0.02 0.02 0.02 0.02 0.03 0.03 0.03 0.04 0.04 0.03 0.03 0.02 0.02 0.02 0.03 0.04 0.04 0.03 0.03 0.02 0.02 0.02 0.02 0.02
0.08 0.09 0.10 0.06 0.04 0.04 0.05 0.06 0.06 0.04 0.04 0.04 0.01 0.01 0.02 0.03 0.06 0.04 0.01 0.00 0.00 0.01 0.01 0.02 0.02 0.02 0.02 0.02 0.02 0.01 0.02 0.03 0.04 0.04 0.03 0.02 0.03 0.02 0.02 0.02 0.03 0.04 0.04 0.02 0.01 0.02 0.01 0.01 0.02
0.07 0.07 0.07 0.05 0.04 0.04 0.05 0.03 0.04 0.04 0.03 0.03 0.01 0.01 0.02 0.03 0.03 0.01 0.01 0.00 0.01 0.02 0.03 0.02 0.03 0.03 0.03 0.02 0.01 0.01 0.01 0.02 0.03 0.03 0.02 0.01 0.01 0.01 0.01 0.01 0.02 0.03 0.04 0.02 0.01 0.02 0.01 0.02 0.02
0.04 0.05 0.05 0.05 0.04 0.03 0.03 0.02 0.02 0.02 0.02 0.02 0.01 0.01 0.01 0.02 0.02 0.01 0.01 0.00 0.01 0.03 0.04 0.04 0.03 0.03 0.02 0.02 0.03 0.04 0.04 0.02 0.02 0.02 0.01 0.01 0.01 0.01 0.01 0.01 0.02 0.04 0.05 0.03 0.02 0.04 0.02 0.02 0.03
0.02 0.03 0.04 0.05 0.04 0.02 0.02 0.01 0.01 0.01 0.02 0.03 0.03 0.02 0.01 0.00 0.01 0.00 0.00 0.00 0.01 0.02 0.03 0.03 0.02 0.02 0.02 0.02 0.02 0.03 0.03 0.02 0.02 0.01 0.01 0.01 0.00 0.00 0.00 0.01 0.02 0.06 0.06 0.04 0.03 0.05 0.04 0.03 0.03
0.01 0.02 0.04 0.03 0.02 0.01 0.01 0.01 0.02 0.01 0.01 0.03 0.05 0.05 0.02 0.01 0.00 0.00 0.01 0.01 0.01 0.01 0.01 0.01 0.01 0.01 0.01 0.01 0.01 0.02 0.01 0.01 0.01 0.01 0.00 0.00 0.00 0.00 0.00 0.01 0.02 0.04 0.06 0.05 0.04 0.04 0.05 0.03 0.02
0.00 0.01 0.03 0.03 0.01 0.01 0.02 0.01 0.01 0.01 0.01 0.02 0.07 0.07 0.03 0.01 0.00 0.00 0.00 0.00 0.00 0.01 0.01 0.01 0.01 0.01 0.02 0.02 0.02 0.02 0.01 0.01 0.01 0.00 0.00 0.00 0.00 0.00 0.01 0.01 0.01 0.02 0.03 0.03 0.02 0.02 0.06 0.04 0.02
0.01 0.01 0.02 0.03 0.02 0.01 0.01 0.01 0.01 0.01 0.01 0.01 0.03 0.05 0.04 0.00 0.00 0.00 0.00 0.00 0.00 0.00 0.01 0.02 0.01 0.01 0.02 0.02 0.02 0.01 0.01 0.00 0.00 0.00 0.00 0.00 0.00 0.00 0.00 0.00 0.00 0.01 0.02 0.02 0.01 0.02 0.05 0.04 0.03
0.01 0.01 0.02 0.02 0.02 0.01 0.01 0.01 0.01 0.01 0.01 0.01 0.01 0.03 0.04 0.01 0.00 0.00 0.00 0.00 0.00 0.00 0.01 0.01 0.01 0.01 0.00 0.01 0.01 0.01 0.00 0.00 0.00 0.00 0.00 0.00 0.00 0.00 0.00 0.00 0.00 0.01 0.02 0.02 0.01 0.02 0.03 0.04 0.04
0.01 0.02 0.03 0.03 0.01 0.01 0.01 0.01 0.01 0.01 0.00 0.01 0.01 0.02 0.03 0.01 0.00 0.00 0.00 0.01 0.00 0.01 0.03 0.03 0.02 0.01 0.00 0.00 0.00 0.00 0.00 0.00 0.00 0.00 0.00 0.00 0.00 0.00 0.00 0.00 0.00 0.01 0.02 0.02 0.01 0.02 0.03 0.03 0.04
0.03 0.03 0.05 0.04 0.01 0.01 0.01 0.02 0.02 0.01 0.01 0.00 0.01 0.02 0.02 0.01 0.00 0.00 0.00 0.00 0.00 0.00 0.02 0.04 0.03 0.02 0.01 0.00 0.00 0.00 0.00 0.00 0.00 0.00 0.00 0.00 0.00 0.00 0.00 0.00 0.01 0.01 0.01 0.02 0.01 0.03 0.03 0.03 0.04
0.03 0.04 0.05 0.04 0.02 0.00 0.01 0.02 0.02 0.02 0.01 0.01 0.01 0.01 0.01 0.01 0.00 0.01 0.00 0.00 0.00 0.00 0.00 0.01 0.01 0.01 0.01 0.00 0.00 0.00 0.00 0.00 0.00 0.00 0.00 0.00 0.00 0.00 0.00 0.00 0.01 0.01 0.01 0.01 0.02 0.02 0.02 0.02 0.03
0.02 0.03 0.03 0.04 0.03 0.01 0.01 0.01 0.01 0.02 0.02 0.01 0.01 0.01 0.01 0.01 0.01 0.01 0.00 0.00 0.00 0.00 0.00 0.00 0.00 0.00 0.00 0.00 0.00 0.00 0.00 0.00 0.00 0.00 0.00 0.00 0.01 0.00 0.01 0.01 0.01 0.01 0.01 0.01 0.01 0.01 0.01 0.02 0.03
0.01 0.01 0.01 0.02 0.07 0.04 0.01 0.01 0.01 0.01 0.03 0.03 0.02 0.01 0.01 0.00 0.01 0.01 0.00 0.00 0.00 0.00 0.00 0.00 0.00 0.00 0.00 0.00 0.00 0.00 0.00 0.00 0.00 0.00 0.00 0.00 0.00 0.01 0.01 0.01 0.01 0.01 0.02 0.01 0.01 0.01 0.00 0.01 0.02
0.01 0.01 0.01 0.02 0.06 0.05 0.01 0.01 0.01 0.01 0.02 0.02 0.03 0.02 0.01 0.01 0.00 0.00 0.00 0.00 0.00 0.00 0.00 0.00 0.00 0.00 0.00 0.00 0.00 0.00 0.00 0.00 0.00 0.00 0.00 0.00 0.00 0.00 0.01 0.00 0.00 0.00 0.01 0.01 0.01 0.01 0.01 0.01 0.02
0.02 0.02 0.03 0.03 0.03 0.03 0.02 0.01 0.01 0.01 0.01 0.03 0.03 0.04 0.02 0.01 0.01 0.00 0.00 0.00 0.00 0.01 0.00 0.00 0.00 0.00 0.00 0.00 0.00 0.00 0.00 0.00 0.00 0.00 0.00 0.00 0.00 0.00 0.01 0.01 0.00 0.00 0.01 0.01 0.01 0.01 0.01 0.01 0.01
0.01 0.01 0.02 0.04 0.05 0.03 0.02 0.02 0.02 0.02 0.01 0.02 0.03 0.03 0.04 0.02 0.01 0.00 0.00 0.01 0.01 0.01 0.01 0.00 0.00 0.00 0.00 0.00 0.00 0.00 0.00 0.00 0.00 0.00 0.00 0.01 0.01 0.01 0.01 0.01 0.01 0.00 0.00 0.01 0.01 0.00 0.00 0.01 0.02
0.01 0.01 0.01 0.04 0.05 0.04 0.02 0.02 0.02 0.02 0.02 0.02 0.03 0.02 0.02 0.02 0.01 0.01 0.00 0.01 0.01 0.01 0.01 0.01 0.00 0.00 0.00 0.00 0.00 0.00 0.00 0.00 0.00 0.00 0.00 0.01 0.01 0.01 0.01 0.02 0.01 0.00 0.00 0.01 0.00 0.00 0.00 0.01 0.02
0.01 0.01 0.01 0.02 0.05 0.04 0.03 0.01 0.01 0.02 0.02 0.03 0.04 0.02 0.02 0.02 0.01 0.01 0.01 0.01 0.02 0.02 0.01 0.00 0.00 0.00 0.00 0.00 0.00 0.00 0.00 0.00 0.00 0.00 0.01 0.00 0.01 0.01 0.00 0.01 0.01 0.01 0.01 0.01 0.00 0.01 0.00 0.00 0.01
0.01 0.01 0.01 0.01 0.02 0.03 0.01 0.01 0.01 0.01 0.01 0.03 0.04 0.02 0.02 0.02 0.01 0.01 0.02 0.02 0.02 0.02 0.01 0.00 0.00 0.00 0.00 0.00 0.00 0.00 0.00 0.00 0.01 0.01 0.01 0.00 0.01 0.01 0.01 0.01 0.01 0.02 0.01 0.00 0.00 0.00 0.00 0.01 0.01
0.00 0.01 0.02 0.02 0.02 0.01 0.00 0.00 0.00 0.00 0.01 0.02 0.02 0.01 0.01 0.02 0.01 0.01 0.02 0.02 0.02 0.01 0.00 0.00 0.00 0.00 0.00 0.00 0.00 0.00 0.00 0.00 0.01 0.01 0.00 0.00 0.01 0.00 0.00 0.01 0.02 0.02 0.02 0.01 0.01 0.00 0.01 0.01 0.01
0.00 0.00 0.02 0.03 0.02 0.01 0.01 0.01 0.00 0.01 0.00 0.01 0.01 0.01 0.02 0.02 0.02 0.01 0.01 0.01 0.01 0.01 0.00 0.00 0.00 0.00 0.00 0.00 0.00 0.00 0.00 0.00 0.01 0.00 0.00 0.00 0.00 0.00 0.00 0.00 0.01 0.01 0.03 0.02 0.01 0.01 0.01 0.01 0.02
0.00 0.01 0.01 0.02 0.02 0.01 0.01 0.01 0.01 0.01 0.00 0.01 0.02 0.02 0.03 0.03 0.03 0.02 0.01 0.01 0.00 0.00 0.00 0.00 0.00 0.00 0.00 0.00 0.00 0.00 0.00 0.00 0.01 0.00 0.00 0.00 0.00 0.00 0.01 0.00 0.00 0.00 0.01 0.01 0.01 0.01 0.02 0.02 0.02
0.00 0.00 0.01 0.02 0.02 0.03 0.02 0.02 0.02 0.02 0.01 0.01 0.02 0.03 0.02 0.03 0.03 0.02 0.02 0.01 0.00 0.00 0.00 0.00 0.00 0.00 0.00 0.00 0.00 0.00 0.00 0.00 0.00 0.00 0.01 0.00 0.00 0.01 0.01 0.01 0.00 0.01 0.01 0.01 0.01 0.01 0.00 0.00 0.01
0.01 0.01 0.01 0.01 0.01 0.02 0.03 0.01 0.01 0.02 0.02 0.01 0.02 0.02 0.02 0.02 0.02 0.02 0.02 0.01 0.01 0.01 0.00 0.01 0.00 0.00 0.00 0.00 0.00 0.00 0.00 0.00 0.00 0.00 0.00 0.00 0.00 0.01 0.00 0.00 0.00 0.01 0.01 0.01 0.01 0.01 0.01 0.01 0.01
0.01 0.01 0.01 0.01 0.01 0.01 0.02 0.02 0.01 0.01 0.01 0.01 0.01 0.01 0.01 0.01 0.02 0.02 0.02 0.02 0.01 0.01 0.01 0.01 0.00 0.00 0.00 0.00 0.00 0.00 0.00 0.00 0.00 0.00 0.00 0.00 0.01 0.01 0.00 0.00 0.00 0.01 0.01 0.01 0.01 0.01 0.02 0.01 0.01
MSLP
1010.38 1011.53 1012.88 1014.23 1015.40 1016.22 1016.65 1016.68 1016.42 1016.01 1015.60 1015.35 1015.32 1015.53 1015.90 1016.34 1016.71 1016.89 1016.82 1016.50 1015.96 1015.31 1014.65 1014.08 1013.68 1013.46 1013.40 1013.47 1013.59 1013.72 1013.82 1013.89 1013.93 1013.98 1014.05 1014.17 1014.33 1014.51 1014.70 1014.86 1014.99 1015.08 1015.15 1015.21 1015.28 1015.37 1015.47 1015.58 1015.68
1010.76 1012.10 1013.57 1014.94 1016.03 1016.71 1016.95 1016.78 1016.34 1015.79 1015.31 1015.04 1015.04 1015.30 1015.74 1016.24 1016.65 1016.87 1016.82 1016.51 1015.99 1015.36 1014.73 1014.18 1013.80 1013.59 1013.54 1013.59 1013.71 1013.83 1013.93 1014.01 1014.07 1014.14 1014.24 1014.36 1014.50 1014.66 1014.81 1014.93 1015.02 1015.09 1015.15 1015.21 1015.30 1015.40 1015.52 1015.64 1015.75
1011.31 1012.78 1014.29 1015.62 1016.59 1017.11 1017.15 1016.81 1016.23 1015.59 1015.08 1014.83 1014.88 1015.19 1015.68 1016.22 1016.65 1016.87 1016.82 1016.51 1016.01 1015.41 1014.81 1014.31 1013.96 1013.77 1013.72 1013.77 1013.87 1013.98 1014.08 1014.16 1014.23 1014.30 1014.40 1014.51 1014.63 1014.75 1014.86 1014.94 1015.00 1015.05 1015.12 1015.20 1015.31 1015.45 1015.60 1015.75 1015.88
1012.00 1013.53 1015.01 1016.24 1017.06 1017.40 1017.28 1016.80 1016.13 1015.47 1014.99 1014.78 1014.89 1015.25 1015.77 1016.31 1016.72 1016.91 1016.84 1016.52 1016.04 1015.47 1014.93 1014.48 1014.17 1014.01 1013.97 1014.01 1014.09 1014.18 1014.25 1014.32 1014.38 1014.45 1014.54 1014.64 1014.74 1014.83 1014.90 1014.96 1015.00 1015.05 1015.13 1015.24 1015.39 1015.56 1015.75 1015.93 1016.08
1012.75 1014.26 1015.66 1016.74 1017.40 1017.57 1017.32 1016.77 1016.09 1015.46 1015.04 1014.92 1015.08 1015.48 1016.00 1016.50 1016.86 1016.99 1016.87 1016.55 1016.08 1015.56 1015.08 1014.70 1014.45 1014.32 1014.29 1014.31 1014.36 1014.41 1014.45 1014.50 1014.54 1014.61 1014.69 1014.79 1014.88 1014.95 1015.00 1015.04 1015.08 1015.14 1015.23 1015.36 1015.54 1015.75 1015.97 1016.17 1016.34
1013.48 1014.91 1016.15 1017.07 1017.55 1017.60 1017.28 1016.72 1016.09 1015.56 1015.25 1015.22 1015.44 1015.85 1016.34 1016.77 1017.03 1017.09 1016.92 1016.58 1016.14 1015.68 1015.27 1014.96 1014.77 1014.68 1014.65 1014.65 1014.66 1014.67 1014.67 1014.69 1014.72 1014.79 1014.88 1014.98 1015.07 1015.15 1015.20 1015.24 1015.28 1015.33 1015.43 1015.58 1015.77 1016.00 1016.23 1016.44 1016.62
1014.09 1015.36 1016.43 1017.16 1017.50 1017.46 1017.12 1016.62 1016.11 1015.72 1015.55 1015.62 1015.90 1016.30 1016.72 1017.05 1017.21 1017.17 1016.95 1016.59 1016.19 1015.79 1015.47 1015.25 1015.12 1015.06 1015.03 1015.01 1014.98 1014.94 1014.90 1014.89 1014.92 1014.99 1015.10 1015.23 1015.35 1015.44 1015.50 1015.54 1015.57 1015.63 1015.71 1015.85 1016.03 1016.25 1016.47 1016.68 1016.85
1014.51 1015.59 1016.45 1017.01 1017.23 1017.15 1016.86 1016.48 1016.12 1015.91 1015.89 1016.07 1016.38 1016.75 1017.09 1017.30 1017.34 1017.20 1016.93 1016.57 1016.20 1015.88 1015.65 1015.51 1015.45 1015.42 1015.39 1015.35 1015.28 1015.20 1015.13 1015.11 1015.14 1015.23 1015.37 1015.53 1015.68 1015.79 1015.87 1015.91 1015.93 1015.95 1016.01 1016.12 1016.27 1016.45 1016.65 1016.83 1017.00
1014.72 1015.59 1016.25 1016.66 1016.79 1016.72 1016.51 1016.28 1016.11 1016.09 1016.22 1016.48 1016.82 1017.14 1017.38 1017.47 1017.39 1017.16 1016.84 1016.49 1016.17 1015.93 1015.79 1015.73 1015.73 1015.73 1015.71 1015.65 1015.55 1015.45 1015.36 1015.33 1015.37 1015.49 1015.66 1015.85 1016.03 1016.17 1016.25 1016.27 1016.27 1016.26 1016.27 1016.33 1016.43 1016.56 1016.72 1016.89 1017.04
1014.78 1015.44 1015.92 1016.19 1016.28 1016.24 1016.14 1016.08 1016.10 1016.24 1016.50 1016.83 1017.17 1017.43 1017.56 1017.54 1017.35 1017.05 1016.70 1016.36 1016.09 1015.93 1015.87 1015.89 1015.94 1015.98 1015.97 1015.90 1015.79 1015.67 1015.57 1015.54 1015.60 1015.73 1015.93 1016.15 1016.35 1016.49 1016.57 1016.58 1016.54 1016.49 1016.45 1016.45 1016.49 1016.58 1016.71 1016.86 1017.00
1014.76 1015.23 1015.55 1015.73 1015.79 1015.81 1015.83 1015.91 1016.10 1016.38 1016.74 1017.10 1017.41 1017.61 1017.64 1017.51 1017.24 1016.88 1016.51 1016.19 1015.98 1015.88 1015.90 1015.98 1016.08 1016.15 1016.16 1016.10 1015.98 1015.86 1015.76 1015.74 1015.80 1015.95 1016.16 1016.38 1016.58 1016.72 1016.79 1016.77 1016.71 1016.61 1016.53 1016.48 1016.49 1016.54 1016.65 1016.79 1016.93
1014.77 1015.09 1015.29 1015.39 1015.45 1015.52 1015.64 1015.85 1016.15 1016.53 1016.94 1017.31 1017.57 1017.69 1017.64 1017.42 1017.08 1016.69 1016.32 1016.02 1015.86 1015.82 1015.89 1016.02 1016.16 1016.26 1016.29 1016.24 1016.14 1016.02 1015.94 1015.91 1015.98 1016.12 1016.31 1016.52 1016.71 1016.83 1016.88 1016.84 1016.75 1016.64 1016.53 1016.47 1016.46 1016.51 1016.61 1016.76 1016.92
1014.90 1015.10 1015.21 1015.27 1015.33 1015.44 1015.63 1015.92 1016.29 1016.71 1017.12 1017.46 1017.67 1017.71 1017.58 1017.31 1016.93 1016.53 1016.16 1015.90 1015.77 1015.77 1015.87 1016.04 1016.21 1016.33 1016.38 1016.36 1016.28 1016.18 1016.11 1016.08 1016.13 1016.24 1016.41 1016.58 1016.73 1016.82 1016.85 1016.80 1016.72 1016.61 1016.51 1016.46 1016.47 1016.53 1016.66 1016.83 1017.02
1015.19 1015.31 1015.36 1015.39 1015.45 1015.59 1015.81 1016.13 1016.52 1016.93 1017.30 1017.58 1017.72 1017.70 1017.53 1017.22 1016.83 1016.44 1016.09 1015.85 1015.75 1015.76 1015.88 1016.06 1016.25 1016.39 1016.47 1016.48 1016.44 1016.36 1016.29 1016.26 1016.28 1016.34 1016.45 1016.56 1016.66 1016.73 1016.74 1016.70 1016.64 1016.57 1016.52 1016.51 1016.57 1016.68 1016.84 1017.04 1017.26
1015.61 1015.68 1015.69 1015.71 1015.78 1015.92 1016.15 1016.46 1016.81 1017.17 1017.47 1017.68 1017.76 1017.69 1017.49 1017.18 1016.81 1016.45 1016.13 1015.92 1015.82 1015.84 1015.95 1016.13 1016.31 1016.47 1016.58 1016.63 1016.62 1016.58 1016.52 1016.47 1016.44 1016.45 1016.48 1016.53 1016.57 1016.60 1016.61 1016.60 1016.58 1016.58 1016.60 1016.67 1016.78 1016.95 1017.16 1017.40 1017.64
1016.09 1016.12 1016.13 1016.15 1016.22 1016.36 1016.57 1016.83 1017.12 1017.40 1017.62 1017.75 1017.77 1017.68 1017.48 1017.20 1016.88 1016.56 1016.29 1016.10 1016.00 1016.01 1016.10 1016.25 1016.43 1016.60 1016.74 1016.83 1016.86 1016.84 1016.79 1016.72 1016.65 1016.59 1016.54 1016.52 1016.50 1016.51 1016.52 1016.55 1016.59 1016.67 1016.77 1016.92 1017.10 1017.33 1017.58 1017.85 1018.11
1016.52 1016.55 1016.56 1016.60 1016.68 1016.81 1016.99 1017.20 1017.40 1017.58 1017.71 1017.77 1017.76 1017.66 1017.49 1017.27 1017.02 1016.77 1016.55 1016.38 1016.28 1016.27 1016.32 1016.44 1016.61 1016.78 1016.95 1017.07 1017.15 1017.16 1017.12 1017.04 1016.92 1016.79 1016.67 1016.57 1016.51 1016.48 1016.50 1016.57 1016.68 1016.83 1017.02 1017.24 1017.48 1017.75 1018.03 1018.32 1018.58
1016.81 1016.86 1016.90 1016.98 1017.09 1017.22 1017.37 1017.51 1017.62 1017.70 1017.74 1017.74 1017.70 1017.62 1017.51 1017.37 1017.21 1017.04 1016.88 1016.74 1016.64 1016.60 1016.61 1016.70 1016.83 1017.01 1017.19 1017.35 1017.47 1017.52 1017.50 1017.40 1017.25 1017.06 1016.87 1016.71 1016.60 1016.55 1016.58 1016.69 1016.86 1017.07 1017.32 1017.59 1017.87 1018.16 1018.45 1018.73 1018.99
1016.93 1017.01 1017.12 1017.26 1017.41 1017.56 1017.67 1017.74 1017.77 1017.74 1017.69 1017.63 1017.57 1017.52 1017.48 1017.45 1017.40 1017.33 1017.24 1017.14 1017.04 1016.96 1016.94 1016.98 1017.08 1017.25 1017.45 1017.64 1017.80 1017.89 1017.88 1017.79 1017.61 1017.38 1017.14 1016.93 1016.78 1016.72 1016.76 1016.89 1017.09 1017.35 1017.63 1017.92 1018.21 1018.49 1018.76 1019.03 1019.28
1016.88 1017.04 1017.24 1017.46 1017.67 1017.84 1017.93 1017.93 1017.85 1017.72 1017.57 1017.45 1017.37 1017.35 1017.39 1017.46 1017.53 1017.57 1017.56 1017.51 1017.42 1017.33 1017.27 1017.26 1017.34 1017.49 1017.69 1017.91 1018.10 1018.22 1018.25 1018.16 1017.98 1017.73 1017.46 1017.21 1017.04 1016.97 1017.00 1017.15 1017.36 1017.63 1017.92 1018.20 1018.47 1018.71 1018.95 1019.19 1019.42
1016.73 1016.99 1017.31 1017.65 1017.93 1018.12 1018.18 1018.10 1017.90 1017.65 1017.39 1017.19 1017.08 1017.09 1017.20 1017.38 1017.57 1017.72 1017.81 1017.82 1017.75 1017.66 1017.56 1017.52 1017.56 1017.69 1017.89 1018.12 1018.34 1018.50 1018.56 1018.50 1018.33 1018.08 1017.79 1017.54 1017.35 1017.26 1017.30 1017.43 1017.65 1017.90 1018.17 1018.41 1018.63 1018.83 1019.01 1019.20 1019.42
1016.58 1016.98 1017.44 1017.89 1018.25 1018.46 1018.47 1018.29 1017.96 1017.56 1017.17 1016.87 1016.72 1016.73 1016.90 1017.17 1017.48 1017.75 1017.94 1018.02 1018.00 1017.91 1017.80 1017.73 1017.73 1017.84 1018.03 1018.27 1018.51 1018.71 1018.80 1018.77 1018.63 1018.39 1018.12 1017.86 1017.67 1017.59 1017.61 1017.73 1017.93 1018.15 1018.38 1018.57 1018.73 1018.86 1018.99 1019.13 1019.32
1016.51 1017.07 1017.68 1018.25 1018.68 1018.88 1018.82 1018.52 1018.04 1017.46 1016.92 1016.50 1016.28 1016.28 1016.49 1016.84 1017.26 1017.65 1017.95 1018.12 1018.15 1018.08 1017.97 1017.88 1017.86 1017.93 1018.11 1018.35 1018.61 1018.83 1018.96 1018.97 1018.87 1018.66 1018.42 1018.18 1017.99 1017.90 1017.92 1018.02 1018.19 1018.38 1018.56 1018.71 1018.81 1018.87 1018.94 1019.03 1019.18
1016.57 1017.29 1018.05 1018.73 1019.20 1019.37 1019.22 1018.78 1018.12 1017.36 1016.64 1016.09 1015.79 1015.76 1015.99 1016.42 1016.93 1017.44 1017.85 1018.11 1018.21 1018.18 1018.09 1017.99 1017.94 1018.00 1018.15 1018.39 1018.65 1018.89 1019.06 1019.11 1019.05 1018.89 1018.68 1018.46 1018.30 1018.21 1018.21 1018.30 1018.45 1018.61 1018.75 1018.85 1018.90 1018.92 1018.93 1018.97 1019.08
1016.75 1017.63 1018.51 1019.26 1019.74 1019.86 1019.61 1019.01 1018.16 1017.22 1016.34 1015.66 1015.27 1015.21 1015.46 1015.94 1016.54 1017.15 1017.67 1018.02 1018.20 1018.23 1018.16 1018.07 1018.02 1018.05 1018.19 1018.41 1018.68 1018.93 1019.12 1019.21 1019.19 1019.08 1018.91 1018.72 1018.57 1018.49 1018.49 1018.57 1018.70 1018.84 1018.96 1019.03 1019.06 1019.04 1019.01 1019.02 1019.08
1016.98 1017.98 1018.96 1019.75 1020.21 1020.26 1019.89 1019.14 1018.13 1017.03 1016.01 1015.22 1014.76 1014.67 1014.93 1015.46 1016.14 1016.84 1017.45 1017.90 1018.16 1018.25 1018.22 1018.15 1018.10 1018.12 1018.24 1018.45 1018.71 1018.97 1019.17 1019.30 1019.32 1019.25 1019.11 1018.96 1018.84 1018.77 1018.77 1018.84 1018.96 1019.10 1019.21 1019.28 1019.30 1019.27 1019.23 1019.21 1019.23
1017.18 1018.27 1019.28 1020.07 1020.48 1020.45 1019.97 1019.10 1017.98 1016.77 1015.66 1014.80 1014.30 1014.20 1014.47 1015.04 1015.77 1016.54 1017.23 1017.76 1018.10 1018.26 1018.28 1018.23 1018.20 1018.22 1018.33 1018.52 1018.77 1019.02 1019.24 1019.39 1019.44 1019.41 1019.31 1019.19 1019.09 1019.03 1019.04 1019.12 1019.24 1019.38 1019.51 1019.60 1019.63 1019.63 1019.59 1019.55 1019.55
1017.27 1018.38 1019.38 1020.12 1020.47 1020.36 1019.80 1018.86 1017.68 1016.43 1015.29 1014.42 1013.92 1013.83 1014.12 1014.71 1015.48 1016.30 1017.04 1017.64 1018.04 1018.25 1018.33 1018.32 1018.31 1018.34 1018.45 1018.63 1018.87 1019.12 1019.34 1019.50 1019.58 1019.58 1019.52 1019.43 1019.35 1019.30 1019.32 1019.40 1019.54 1019.69 1019.85 1019.97 1020.05 1020.08 1020.07 1020.05 1020.03
1017.18 1018.25 1019.18 1019.84 1020.11 1019.94 1019.34 1018.39 1017.23 1016.01 1014.92 1014.10 1013.64 1013.58 1013.89 1014.49 1015.27 1016.10 1016.87 1017.50 1017.95 1018.22 1018.35 1018.39 1018.42 1018.47 1018.59 1018.77 1019.00 1019.24 1019.47 1019.64 1019.74 1019.76 1019.73 1019.67 1019.62 1019.59 1019.63 1019.72 1019.86 1020.04 1020.23 1020.39 1020.52 1020.61 1020.65 1020.65 1020.64
1016.93 1017.88 1018.70 1019.25 1019.44 1019.23 1018.64 1017.74 1016.66 1015.55 1014.57 1013.84 1013.45 1013.43 1013.75 1014.34 1015.10 1015.91 1016.68 1017.32 1017.79 1018.11 1018.30 1018.41 1018.48 1018.58 1018.71 1018.91 1019.14 1019.38 1019.61 1019.79 1019.91 1019.96 1019.96 1019.94 1019.91 1019.91 1019.96 1020.06 1020.22 1020.41 1020.63 1020.84 1021.02 1021.16 1021.26 1021.31 1021.33
Thickness
5808 5808 5804 5791 5768 5750 5744 5752 5762 5764 5765 5770 5775 5770 5761 5754 5750 5742 5759 5767 5767 5767 5766 5766 5766 5765 5765 5764 5764 5763 5762 5761 5760 5758 5757 5755 5754 5752 5752 5751 5750 5749 5748 5748 5748 5747 5748 5748 5748
5807 5806 5794 5777 5753 5736 5740 5753 5758 5765 5770 5774 5773 5768 5760 5755 5760 5759 5761 5764 5766 5765 5764 5764 5763 5763 5762 5762 5761 5760 5760 5758 5757 5756 5754 5753 5751 5750 5749 5748 5747 5746 5745 5745 5744 5744 5745 5745 5745
5806 5802 5780 5762 5749 5739 5743 5755 5761 5770 5776 5774 5765 5762 5757 5753 5759 5759 5761 5764 5763 5762 5762 5761 5761 5760 5759 5759 5758 5757 5757 5755 5754 5753 5751 5750 5748 5747 5746 5745 5744 5743 5742 5741 5741 5741 5741 5741 5742
5798 5785 5772 5754 5745 5752 5755 5760 5766 5766 5769 5769 5762 5752 5754 5761 5761 5761 5762 5762 5760 5760 5759 5759 5758 5758 5757 5756 5756 5755 5754 5753 5751 5750 5748 5747 5746 5744 5743 5742 5741 5740 5739 5738 5737 5737 5738 5738 5739
5791 5772 5754 5743 5746 5755 5762 5767 5768 5763 5760 5760 5758 5746 5746 5758 5763 5761 5760 5759 5757 5757 5756 5756 5756 5755 5754 5754 5753 5752 5751 5750 5748 5747 5746 5744 5743 5742 5741 5740 5738 5737 5736 5735 5734 5734 5734 5735 5735
5773 5762 5740 5733 5743 5755 5761 5767 5765 5758 5756 5757 5753 5744 5742 5755 5757 5757 5758 5757 5756 5755 5754 5753 5753 5753 5752 5751 5750 5750 5749 5748 5746 5744 5743 5742 5741 5739 5738 5737 5735 5734 5733 5732 5731 5731 5731 5731 5732
5765 5752 5741 5740 5741 5748 5759 5767 5760 5755 5753 5755 5755 5740 5740 5749 5755 5757 5756 5755 5754 5752 5751 5751 5751 5750 5749 5749 5748 5747 5746 5745 5744 5742 5741 5740 5738 5737 5735 5734 5732 5731 5730 5729 5729 5728 5728 5728 5729
5773 5753 5743 5740 5740 5745 5761 5766 5762 5757 5753 5761 5757 5740 5736 5746 5753 5754 5753 5751 5750 5749 5749 5748 5748 5747 5746 5746 5746 5745 5744 5743 5742 5740 5739 5737 5736 5734 5733 5731 5730 5728 5728 5727 5727 5726 5726 5726 5726
5776 5745 5734 5741 5742 5747 5760 5758 5759 5761 5756 5754 5754 5749 5749 5752 5751 5748 5745 5744 5744 5745 5745 5746 5745 5744 5744 5744 5744 5743 5742 5741 5740 5739 5737 5736 5734 5732 5730 5729 5727 5726 5726 5725 5724 5724 5723 5723 5724
5763 5738 5745 5756 5756 5754 5758 5756 5755 5749 5743 5741 5743 5746 5749 5747 5744 5741 5739 5739 5740 5740 5742 5743 5743 5742 5742 5742 5742 5742 5741 5740 5739 5738 5736 5734 5732 5730 5728 5726 5725 5724 5723 5723 5722 5721 5721 5721 5721
5763 5748 5755 5760 5764 5762 5756 5754 5756 5743 5733 5736 5737 5739 5742 5741 5739 5738 5738 5739 5739 5740 5741 5742 5742 5741 5741 5741 5740 5740 5740 5739 5738 5737 5735 5733 5731 5729 5726 5724 5723 5721 5721 5720 5719 5719 5718 5718 5718
5760 5759 5761 5761 5765 5761 5756 5752 5746 5743 5740 5745 5744 5743 5739 5737 5736 5736 5736 5737 5739 5739 5739 5741 5741 5740 5739 5739 5739 5739 5738 5737 5737 5735 5734 5732 5729 5727 5724 5722 5720 5719 5718 5717 5717 5717 5716 5715 5716
5756 5755 5761 5762 5761 5759 5756 5747 5742 5739 5744 5745 5743 5740 5736 5735 5735 5736 5738 5738 5739 5738 5739 5740 5741 5739 5739 5738 5738 5737 5737 5736 5736 5735 5733 5731 5728 5726 5723 5721 5719 5717 5716 5715 5715 5714 5714 5713 5713
5757 5756 5754 5756 5755 5754 5746 5741 5739 5735 5742 5740 5737 5734 5734 5734 5734 5734 5734 5735 5736 5737 5738 5738 5738 5738 5738 5737 5736 5736 5735 5735 5735 5734 5732 5730 5728 5725 5723 5720 5718 5716 5714 5713 5712 5712 5712 5711 5711
5759 5747 5743 5746 5748 5748 5744 5728 5731 5736 5739 5734 5731 5731 5732 5733 5734 5733 5734 5734 5735 5735 5736 5736 5737 5736 5736 5735 5735 5734 5734 5733 5733 5732 5731 5729 5727 5725 5722 5720 5717 5715 5713 5712 5711 5710 5710 5709 5708
5747 5732 5721 5736 5744 5745 5733 5712 5728 5736 5734 5727 5727 5727 5729 5731 5733 5734 5734 5734 5734 5734 5734 5735 5736 5734 5734 5733 5733 5732 5732 5732 5731 5731 5729 5728 5726 5724 5721 5719 5716 5715 5713 5711 5710 5708 5706 5705 5705
5726 5714 5715 5726 5741 5740 5729 5716 5727 5734 5731 5724 5724 5724 5725 5727 5730 5732 5734 5734 5733 5733 5733 5732 5732 5732 5732 5731 5731 5730 5730 5730 5729 5728 5727 5726 5724 5722 5720 5718 5716 5714 5712 5711 5709 5706 5705 5703 5702
5714 5716 5718 5720 5733 5733 5724 5720 5725 5730 5728 5723 5722 5722 5722 5724 5727 5731 5733 5734 5733 5733 5732 5730 5730 5730 5730 5729 5728 5728 5727 5727 5727 5726 5725 5724 5723 5722 5720 5717 5716 5714 5712 5709 5708 5705 5705 5703 5702
5728 5723 5718 5724 5736 5729 5721 5719 5722 5727 5725 5721 5720 5720 5721 5724 5728 5730 5732 5732 5731 5730 5729 5728 5728 5728 5728 5726 5725 5723 5722 5723 5724 5724 5724 5723 5722 5721 5719 5717 5715 5714 5711 5709 5708 5706 5703 5701 5701
5729 5719 5717 5723 5733 5727 5717 5716 5723 5726 5725 5725 5723 5722 5722 5721 5723 5726 5728 5729 5729 5728 5728 5727 5727 5727 5727 5727 5725 5724 5722 5722 5722 5722 5722 5721 5721 5720 5719 5717 5715 5714 5711 5709 5708 5706 5702 5701 5701
5724 5718 5717 5716 5723 5726 5716 5707 5715 5722 5727 5728 5728 5727 5725 5724 5723 5724 5725 5726 5727 5727 5727 5727 5726 5726 5727 5726 5725 5723 5721 5720 5719 5719 5719 5720 5720 5719 5718 5717 5715 5714 5712 5709 5708 5707 5704 5700 5701
5715 5729 5726 5719 5706 5698 5707 5685 5705 5715 5719 5723 5724 5724 5725 5727 5726 5725 5726 5725 5726 5727 5728 5727 5726 5726 5726 5725 5723 5720 5717 5715 5716 5717 5717 5718 5719 5718 5717 5716 5715 5714 5712 5710 5709 5708 5706 5704 5700
5724 5733 5727 5719 5706 5696 5700 5689 5698 5712 5711 5719 5724 5726 5727 5728 5727 5727 5727 5727 5727 5728 5727 5726 5726 5725 5725 5725 5723 5720 5717 5716 5716 5717 5717 5717 5717 5717 5716 5716 5715 5713 5712 5710 5709 5708 5707 5705 5703
5733 5723 5714 5704 5694 5681 5695 5688 5693 5707 5719 5725 5727 5729 5730 5729 5728 5728 5728 5727 5726 5726 5726 5725 5724 5723 5724 5723 5722 5720 5718 5716 5715 5715 5714 5715 5715 5715 5715 5715 5714 5713 5712 5710 5709 5708 5707 5706 5705
5721 5695 5675 5673 5669 5675 5698 5693 5699 5724 5734 5734 5732 5731 5732 5730 5728 5726 5725 5724 5724 5724 5724 5724 5723 5722 5722 5722 5721 5720 5719 5718 5716 5715 5714 5713 5713 5713 5714 5714 5713 5712 5712 5711 5710 5708 5707 5706 5704
5710 5697 5672 5663 5663 5675 5694 5690 5710 5736 5740 5741 5738 5736 5733 5730 5729 5727 5726 5725 5724 5724 5724 5723 5722 5721 5721 5720 5720 5720 5720 5718 5717 5716 5715 5714 5713 5713 5714 5713 5712 5712 5711 5710 5709 5707 5706 5705 5704
5705 5695 5696 5680 5679 5673 5681 5697 5717 5733 5733 5733 5733 5731 5730 5730 5728 5727 5727 5726 5725 5724 5724 5723 5722 5721 5720 5720 5720 5719 5719 5719 5718 5717 5716 5715 5715 5715 5714 5713 5712 5711 5710 5709 5708 5706 5704 5704 5702
5715 5704 5685 5676 5665 5661 5676 5687 5695 5714 5721 5726 5727 5728 5729 5729 5728 5727 5726 5726 5725 5725 5724 5723 5722 5721 5720 5720 5719 5719 5718 5719 5718 5717 5716 5715 5715 5714 5713 5711 5710 5709 5708 5707 5706 5704 5703 5702 5700
5703 5699 5689 5675 5672 5661 5663 5681 5718 5719 5724 5725 5728 5729 5729 5728 5728 5727 5725 5726 5725 5724 5723 5721 5721 5720 5719 5719 5718 5718 5717 5718 5717 5716 5716 5715 5714 5713 5712 5711 5709 5708 5706 5705 5704 5702 5701 5700 5698
5707 5700 5688 5671 5671 5670 5666 5682 5729 5727 5729 5729 5729 5731 5731 5730 5730 5728 5726 5724 5723 5721 5721 5720 5719 5719 5719 5718 5717 5717 5717 5716 5716 5715 5715 5715 5714 5712 5711 5710 5708 5706 5705 5703 5702 5700 5699 5698 5696